Miscellaneous Local Product
Issued by NWS Hastings, NE

Home | Current Version | Previous Version | Graphics & Text | Print | Product List | Glossary On
Versions: 1 2 3 4 5 6 7 8 9 10 11 12 13 14 15 16 17 18 19 20 21 22 23 24 25 26 27 28 29 30 31 32 33 34 35 36 37 38 39 40 41 42 43 44 45 46 47 48 49 50
000
AXUS43 KGID 201002
MISGRI

GID CWA HOURLY WEATHER ROUNDUP
NATIONAL WEATHER SERVICE HASTINGS NE
500 AM CDT FRI OCT 20 2017

NOTE: "FAIR" INDICATES FEW OR NO CLOUDS BELOW 12,000 FEET WITH NO
SIGNIFICANT WEATHER AND/OR OBSTRUCTIONS TO VISIBILITY.

...SOUTH CENTRAL NEBRASKA...

CITY           SKY/WX    TMP DP  RH WIND       PRES   REMARKS
GRAND ISLAND   FAIR      56  50  80 S14       29.88F
HASTINGS       FAIR      57  48  72 S14       29.90F
KEARNEY        FAIR      57  48  72 S17G23    29.86F
ORD            PTCLDY    56  47  71 S8        29.82F
YORK             N/A     55  50  82 S12       29.92S
AURORA         FAIR      55  49  78 S12G18    29.89F
LEXINGTON      PTCLDY    56  46  69 S12       29.83F
HOLDREGE       FAIR      57  48  73 S15       29.85F
HEBRON         FAIR      58  52  80 S9        29.94S

...NEBRASKA PANHANDLE...

CITY           SKY/WX    TMP DP  RH WIND       PRES   REMARKS
CHADRON        CLEAR     54  34  46 SW3       29.67F
ALLIANCE       CLEAR     41  39  93 S9        29.72F
SCOTTSBLUFF    PTCLDY    44  32  62 E6        29.72F
SIDNEY         MOCLDY    43  39  86 S8        29.75F

...WESTERN AND NORTH CENTRAL NEBRASKA...

CITY           SKY/WX    TMP DP  RH WIND       PRES   REMARKS
VALENTINE      PTCLDY    59  43  55 S14       29.72F
AINSWORTH      PTCLDY    54  45  71 S12       29.75F
ONEILL         CLEAR     57  47  71 S10       29.80F
BROKEN BOW     PTCLDY    52  45  77 SE6       29.81F
IMPERIAL       MOCLDY    55  45  68 S10       29.77F
NORTH PLATTE   PTCLDY    58  46  64 S15       29.78F
MCCOOK         MOCLDY    57  47  69 S10       29.81F

...EASTERN NEBRASKA...

CITY           SKY/WX    TMP DP  RH WIND       PRES   REMARKS
NORFOLK        FAIR      58  48  69 S16       29.86F
SO SIOUX CITY  FAIR      48  47  96 SE8       29.90F
TEKAMAH        FAIR      54  48  80 SE7       29.93F
COLUMBUS       FAIR      58  49  72 S15G22    29.90F
ALBION         FAIR      57  48  72 S10       29.86F
OMAHA EPPLEY   MOCLDY    56  50  80 SE12      29.97F
OFFUTT AFB     FAIR      53  49  89 SE9       29.97F
MILLARD        FAIR      58  52  80 SE5       29.97S
LINCOLN        FAIR      57  51  80 S9        29.95F
NEBRASKA CITY  FAIR      54  54  99 S6        30.00S
BEATRICE       FAIR      57  53  84 S8        29.97S
FALLS CITY     FAIR      56  52  86 S7        30.01F

...NORTHERN KANSAS...

CITY           SKY/WX    TMP DP  RH WIND       PRES   REMARKS
GOODLAND       MOCLDY    53  47  79 S15       29.81F
HILL CITY      FAIR      59  47  64 S13G25    29.87F
NORTON         SUNNY     57  43  58 S13       29.84F
PHILLIPSBURG   CLEAR     61  46  59 S5        29.88F
SMITH CENTER   CLEAR     54  46  76 SE8       29.91F
HAYS           FAIR      58  48  69 S16       29.90F
RUSSELL        FAIR      57  51  80 S13       29.92F
CONCORDIA      FAIR      60  52  74 S21G28    29.94F
SALINA         FAIR      62  53  72 S14       29.97F
TOPEKA         FAIR      61  55  81 S12       30.03F



USA.gov is the U.S. government's official web portal to all federal, state and local government web resources and services.